Home   Weather   27°56'N, 82°27'W   Past weeks
Flag for USA

Past Weather in 27°56'N, 82°27'W, USA — Yesterday and Last 2 Weeks

Now
79 °F

Overcast.


Feels Like: 82 °F
Forecast: 89 / 71 °F
Wind: 6 mph from South

Location: Tampa, Peter O Knight Airport

Current Time: Oct 15, 2019 at 10:19:37 am

Latest Report: Oct 15, 2019 at 9:35 am


Visibility: 10 mi

Pressure: 30.07 "Hg

Humidity: 84%

Dew Point: 73 °F

Location of 27°56'N, 82°27'WLocation

Past Weather in 27°56'N, 82°27'W — Graph

°F

27°56'N, 82°27'W Temperature Yesterday

Maximum temperature yesterday: 90 °F (at 2:35 pm)
Minimum temperature yesterday: 73 °F (at 2:55 am)
Average temperature yesterday: 81 °F

High & Low Weather Summary for the Past Weeks

 TemperatureHumidityPressure
High95 °F (Sep 30, 2:55 pm)100% (Oct 1, 1:15 am)30.09 "Hg (Oct 1, 1:15 am)
Low72 °F (Oct 13, 4:15 am)39% (Oct 2, 3:35 pm)29.81 "Hg (Oct 7, 3:55 pm)
Average82 °F72%29.99 "Hg
* Reported Sep 30 9:15 am — Oct 15 9:15 am, 27°56'N, 82°27'W. Weather by CustomWeather, © 2019

Note: Actual official high and low records may vary slightly from our data, if they occured in-between our weather recording intervals... More about our weather records

Advertising

27°56'N, 82°27'W Weather History for the Previous 24 Hours

Scroll right to see more
 ConditionsComfort  
Time TempWeatherWind HumidityBarometerVisibility
9:15 am
Tue, Oct 15
77 °FOvercast.5 mph89%30.08 "Hg10 mi
8:35 am75 °FOvercast.No wind100%30.07 "Hg10 mi
8:15 am73 °FMostly cloudy.5 mph100%30.06 "Hg10 mi
7:55 am75 °FOvercast.5 mph94%30.06 "Hg10 mi
7:35 am77 °FOvercast.5 mph89%30.06 "Hg10 mi
7:15 am75 °FOvercast.6 mph94%30.06 "Hg10 mi
6:55 am77 °FOvercast.8 mph89%30.06 "Hg10 mi
6:35 am75 °FOvercast.6 mph94%30.05 "Hg10 mi
6:15 am77 °FMostly cloudy.6 mph89%30.05 "Hg10 mi
5:55 am77 °FMostly cloudy.6 mph89%30.05 "Hg10 mi
5:35 am77 °FOvercast.5 mph89%30.05 "Hg10 mi
5:15 am77 °FOvercast.6 mph89%30.05 "Hg10 mi
4:55 am75 °FOvercast.6 mph100%30.05 "Hg10 mi
4:35 am75 °FOvercast.3 mph100%30.05 "Hg10 mi
4:15 am75 °FOvercast.3 mph94%30.05 "Hg10 mi
3:55 am75 °FOvercast.5 mph94%30.05 "Hg10 mi
3:35 am75 °FOvercast.5 mph94%30.05 "Hg10 mi
3:15 am75 °FOvercast.5 mph94%30.06 "Hg10 mi
2:55 am75 °FOvercast.No wind94%30.06 "Hg10 mi
2:35 am75 °FOvercast.3 mph94%30.07 "Hg10 mi
2:15 am75 °FOvercast.3 mph94%30.08 "Hg10 mi
1:55 am77 °FOvercast.3 mph89%30.08 "Hg10 mi
1:35 am77 °FOvercast.3 mph89%30.08 "Hg10 mi
1:15 am77 °FOvercast.5 mph89%30.08 "Hg10 mi
12:55 am77 °FOvercast.7 mph89%30.09 "Hg10 mi
12:35 am77 °FOvercast.5 mph83%30.09 "Hg10 mi
12:15 am77 °FOvercast.5 mph83%30.09 "Hg10 mi
11:55 pm
Mon, Oct 14
77 °FOvercast.6 mph83%30.09 "Hg10 mi
11:35 pm79 °FOvercast.6 mph79%30.09 "Hg10 mi
11:15 pm79 °FMostly cloudy.6 mph79%30.09 "Hg10 mi
10:35 pm79 °FOvercast.6 mph74%30.08 "Hg10 mi
10:15 pm79 °FPassing clouds.10 mph79%30.08 "Hg10 mi
9:55 pm81 °FPassing clouds.5 mph70%30.07 "Hg10 mi
9:35 pm81 °FPassing clouds.3 mph70%30.06 "Hg10 mi
9:15 pm81 °FOvercast.3 mph70%30.06 "Hg10 mi
8:55 pm81 °FOvercast.No wind70%30.05 "Hg10 mi
8:35 pm82 °FOvercast.3 mph66%30.04 "Hg10 mi
7:55 pm82 °FPartly cloudy.No wind70%30.03 "Hg10 mi
7:35 pm82 °FPassing clouds.5 mph70%30.02 "Hg10 mi
7:15 pm84 °FPartly cloudy.No wind70%30.01 "Hg10 mi
6:55 pm84 °FPartly sunny.No wind70%30.02 "Hg10 mi
6:35 pm86 °FPartly sunny.3 mph62%30.01 "Hg10 mi
6:15 pm86 °FOvercast.No wind62%30.01 "Hg10 mi
5:55 pm88 °FOvercast.5 mph55%30.01 "Hg10 mi
5:35 pm86 °FPartly sunny.No wind59%30.01 "Hg10 mi
5:15 pm88 °FScattered clouds.No wind46%30.01 "Hg10 mi
4:55 pm88 °FBroken clouds.No wind52%30.01 "Hg10 mi
4:35 pm90 °FScattered clouds.5 mph49%30.01 "Hg10 mi
3:55 pm90 °FPartly sunny.6 mph52%30.00 "Hg10 mi
3:35 pm90 °FScattered clouds.7 mph52%30.00 "Hg10 mi
3:15 pm88 °FScattered clouds.3 mph55%30.01 "Hg10 mi
2:55 pm88 °FPartly sunny.7 mph55%30.01 "Hg10 mi
2:35 pm90 °FPartly sunny.6 mph55%30.02 "Hg10 mi
2:15 pm88 °FScattered clouds.3 mph55%30.02 "Hg10 mi
1:55 pm88 °FPartly sunny.5 mph55%30.03 "Hg10 mi
1:35 pm88 °FBroken clouds.5 mph55%30.04 "Hg10 mi
1:15 pm86 °FMore clouds than sun.5 mph62%30.05 "Hg10 mi
12:55 pm86 °FMostly cloudy.3 mph62%30.06 "Hg10 mi
12:35 pm86 °FCloudy.3 mph62%30.06 "Hg10 mi
12:15 pm86 °FCloudy.5 mph62%30.07 "Hg10 mi
11:55 am86 °FMore clouds than sun.5 mph66%30.08 "Hg10 mi
11:35 am82 °FCloudy.3 mph74%30.09 "Hg10 mi
11:15 am82 °FMore clouds than sun.5 mph74%30.09 "Hg10 mi
10:55 am82 °FOvercast.5 mph74%30.09 "Hg10 mi
10:35 am82 °FOvercast.5 mph74%30.09 "Hg10 mi
10:15 am82 °FMostly cloudy.6 mph74%30.09 "Hg10 mi
Weather by CustomWeather, © 2019

See weather overview